GFSFLT2_prec_cthk_306.txt.gz
RH
33 33 33 30 27 30 29 31 32 32 32 36 43 49 53 58 59 60 60 64 62 59 59 56 52 51 51 42 28 22 21 19
30 30 29 27 25 24 24 24 27 28 26 25 27 32 36 40 46 53 55 68 77 76 66 68 67 57 53 50 50 39 25 22
28 26 26 24 23 24 22 23 24 26 28 27 24 25 26 30 33 36 36 40 44 55 65 69 62 63 61 56 55 52 41 29
30 26 24 25 26 24 24 24 24 25 24 22 23 21 20 21 24 29 32 34 36 40 41 53 68 70 69 65 66 58 57 51
28 27 24 24 24 23 22 21 20 19 21 19 16 14 12 12 12 13 17 25 30 37 39 40 44 61 75 77 73 79 61 60
29 26 24 20 19 15 16 19 17 17 20 19 18 17 15 13 12 13 14 19 20 20 28 37 42 47 59 71 83 82 75 77
25 20 16 13 15 15 17 22 21 22 24 27 26 24 22 19 18 17 18 17 17 18 18 20 26 37 52 62 68 71 79 79
22 20 17 14 17 19 22 25 25 27 34 38 34 32 28 26 24 21 19 17 18 19 24 23 21 24 29 43 62 70 73 77
23 22 19 15 18 23 24 25 27 32 37 34 30 27 24 23 21 23 23 21 19 18 21 21 22 22 25 26 33 47 66 80
26 21 17 16 19 24 27 29 32 34 33 31 28 28 27 23 27 28 28 29 29 28 27 24 27 28 25 21 20 22 33 58
21 19 16 18 20 24 25 29 32 32 33 31 30 29 26 26 30 30 29 30 32 33 35 36 33 33 31 29 22 19 20 27
19 19 18 20 22 25 26 26 29 31 33 32 31 30 30 30 32 32 34 35 38 39 40 41 43 42 37 31 25 21 19 20
20 24 23 22 25 27 25 27 29 31 32 31 32 32 33 35 36 38 40 44 48 50 49 48 47 49 47 37 26 24 23 27
24 25 25 24 24 26 28 27 29 30 32 32 32 32 34 38 41 43 50 56 57 61 63 62 59 58 54 49 38 27 30 27
25 24 25 26 23 24 23 26 28 30 34 33 34 37 41 47 52 57 61 61 60 63 66 70 68 70 68 63 54 45 36 28
25 26 28 27 27 27 27 28 31 35 39 42 44 40 46 49 49 59 63 65 65 65 66 69 71 71 74 76 76 63 52 36
26 28 28 28 32 28 28 28 36 40 45 48 44 37 44 46 38 44 56 68 69 74 76 79 82 86 90 84 84 82 66 53
30 30 30 29 29 29 30 31 41 42 41 40 39 36 39 40 44 43 47 65 83 86 92 91 85 88 93 93 88 84 76 61
31 31 31 30 30 32 33 37 41 39 38 35 37 36 37 43 47 40 41 35 58 87 94 95 95 89 90 97 95 90 84 68
32 32 30 31 33 34 34 39 36 39 36 33 34 40 43 37 34 41 45 35 46 77 89 93 93 89 93 94 92 91 88 74

GFSFLT2_prec_cthk_312.txt.gz
RH
34 31 28 26 23 20 19 18 17 16 16 16 15 16 16 15 15 16 19 23 30 39 43 49 65 73 70 71 68 66 60 46
31 27 23 18 16 16 16 14 13 12 11 12 12 12 11 10 11 11 12 12 13 15 23 32 38 47 65 75 76 78 75 68
29 23 18 15 13 12 15 15 13 12 13 13 12 12 12 12 13 12 13 12 11 10 11 12 17 26 36 44 61 76 78 78
23 18 15 12 12 12 13 13 13 13 14 13 15 16 16 16 16 15 14 13 13 13 13 13 12 12 14 24 34 53 68 78
21 17 13 10 12 11 12 14 13 13 12 15 16 17 16 15 14 12 11 11 10 10 10 11 12 13 12 12 16 28 49 60
18 13 10 10 10 11 13 13 13 13 16 17 17 18 18 17 15 14 12 11 10 10 10 10 10 10 13 12 12 14 23 41
14 12 11 9 10 11 13 14 16 18 18 19 19 20 17 16 15 14 13 13 13 13 13 12 11 10 10 11 11 12 13 19
13 13 11 11 11 13 16 18 18 18 20 21 21 18 14 14 15 15 15 16 17 18 18 16 15 14 12 12 11 11 12 14
14 13 12 11 12 15 18 20 18 20 21 21 19 17 15 16 18 19 20 23 25 25 25 24 23 21 20 19 16 13 13 14
13 13 12 13 14 15 16 18 19 20 21 20 19 18 17 18 20 20 22 24 27 29 30 32 32 31 30 27 25 22 19 16
15 14 13 14 14 15 16 17 20 21 23 23 22 19 15 15 16 19 21 23 26 31 33 36 38 39 32 30 31 29 29 25
16 15 15 15 15 15 16 18 22 26 27 25 20 18 15 14 15 17 21 22 24 25 28 33 41 43 42 39 33 35 35 37
18 17 17 17 17 16 18 21 26 28 27 23 20 17 16 14 14 15 17 18 20 21 26 31 41 50 55 57 49 38 43 43
22 20 19 18 19 18 21 24 26 25 22 20 17 14 15 15 14 13 14 15 15 19 28 33 49 57 54 64 63 45 43 44
25 22 20 21 20 21 22 25 23 22 21 18 16 14 15 14 11 10 11 16 15 14 23 33 50 64 62 63 70 62 51 46
25 22 22 22 21 23 24 24 24 22 19 17 15 16 17 16 15 13 13 17 15 15 18 27 46 67 72 70 71 73 65 55
25 23 23 23 23 23 22 22 23 20 17 14 15 17 18 18 18 17 17 19 16 16 18 22 38 63 78 79 75 72 69 72
24 24 25 26 26 25 23 23 21 18 17 16 18 20 22 21 21 20 21 21 16 18 21 24 31 49 75 82 83 79 75 73
26 26 27 28 29 27 25 23 20 18 18 19 20 23 24 24 23 22 24 24 20 21 22 24 28 39 58 86 88 87 88 85
30 28 29 30 29 27 24 21 18 17 18 19 22 26 26 26 24 24 26 26 24 25 24 26 26 37 48 73 90 91 91 90

GFSFLT2_prec_cthk_318.txt.gz
RH
26 22 17 14 13 11 10 11 11 10 8 8 8 8 8 9 9 9 10 10 10 10 11 11 11 12 13 14 20 36 56 68
22 17 14 11 9 10 12 12 11 9 8 8 8 9 8 8 8 10 11 11 11 11 10 10 9 9 9 9 11 14 22 47
17 12 9 10 11 12 13 11 10 8 8 8 8 8 8 9 9 9 10 9 9 10 10 10 10 10 9 8 7 8 11 16
11 10 10 12 13 12 11 11 9 8 9 9 9 9 9 10 10 10 10 9 9 10 10 10 11 11 10 9 8 7 7 8
12 12 12 12 12 12 12 12 10 9 10 10 10 10 11 11 11 11 11 11 12 13 14 14 12 11 10 9 9 8 8 8
13 12 12 12 13 13 14 13 12 10 10 11 12 13 12 11 11 9 8 10 12 13 13 13 14 14 15 15 14 11 9 9
14 14 13 13 14 15 15 14 13 12 12 13 14 13 11 10 9 9 8 8 11 12 13 13 13 13 15 17 18 18 14 11
17 15 13 14 15 16 15 16 15 15 15 15 13 12 11 11 9 7 6 7 8 9 11 11 12 13 14 15 17 19 20 18
19 16 15 15 16 16 17 17 17 16 16 15 13 12 10 9 8 7 6 6 6 7 9 9 9 9 12 15 16 18 21 23
21 17 16 17 18 18 19 18 18 17 16 15 13 12 11 9 8 8 7 7 7 7 8 8 8 9 10 13 16 19 22 25
23 18 18 19 20 20 20 20 18 17 16 15 14 13 11 10 9 8 8 9 9 9 10 11 14 11 10 12 15 19 25 32
24 19 20 21 22 22 21 21 19 18 16 14 14 14 13 12 11 11 11 11 11 11 12 12 17 17 11 13 18 23 28 34
24 21 21 23 24 23 22 21 20 17 16 16 15 16 15 13 13 13 13 13 13 15 14 13 14 18 15 12 18 26 32 31
25 23 24 26 25 25 25 23 20 19 18 16 18 18 16 15 15 16 16 16 15 16 16 14 14 18 24 21 19 19 29 36
27 25 27 27 27 28 26 21 20 19 19 19 20 20 19 19 18 17 18 18 19 19 19 18 16 17 25 32 34 30 25 35
29 28 29 30 30 29 24 22 21 22 22 22 23 23 22 20 19 20 20 20 22 23 22 20 20 22 23 31 38 41 41 32
30 30 32 33 32 27 24 23 22 22 22 22 24 24 23 22 22 22 22 24 25 27 27 26 26 27 30 30 30 32 38 44
32 32 35 35 32 28 25 25 24 23 22 24 26 25 25 25 24 23 26 28 31 30 31 31 28 28 25 26 30 35 34 41
33 36 37 35 31 29 28 27 26 23 24 29 29 27 28 26 26 28 30 30 31 31 33 33 31 33 31 28 27 31 40 43
37 38 37 35 32 31 29 28 24 23 27 29 29 30 27 27 29 31 30 30 31 30 31 34 36 38 41 42 38 33 34 46

GFSFLT2_prec_cthk_324.txt.gz
RH
16 15 11 10 11 11 11 11 11 11 11 10 10 10 9 9 9 9 9 10 11 12 11 11 10 9 8 8 8 8 8 12
16 12 13 14 13 12 12 12 12 12 11 11 11 11 10 10 9 9 9 10 11 11 11 10 10 11 11 9 8 9 12 12
13 16 16 15 14 13 13 13 13 12 12 12 11 10 9 9 10 11 12 11 10 9 9 9 10 12 12 12 12 14 13 14
14 17 18 18 17 15 15 15 15 14 13 12 11 10 10 11 12 11 10 9 11 9 10 11 13 15 17 16 17 17 16 16
21 22 20 17 17 16 17 18 16 15 14 12 12 12 12 13 15 15 14 14 15 14 13 14 15 15 15 17 18 17 20 19
26 25 21 17 17 17 19 18 17 19 16 13 12 14 14 17 16 17 18 18 17 16 15 16 16 15 14 13 15 18 20 22
29 27 23 18 18 17 18 19 20 20 19 15 15 20 19 18 18 18 19 19 18 18 18 17 16 15 14 13 13 15 20 21
31 28 24 20 19 18 21 22 23 22 22 20 18 21 21 20 20 20 20 20 21 19 20 19 17 16 16 14 15 16 17 21
32 29 26 22 21 23 24 24 25 24 24 25 23 23 21 22 21 21 20 21 21 24 22 20 18 16 16 17 17 20 20 20
34 32 29 25 22 23 26 26 26 25 25 24 23 22 21 22 21 21 22 23 26 25 23 20 18 17 17 20 21 24 23 22
38 34 29 27 25 28 28 29 28 26 25 24 25 24 23 22 20 22 23 24 24 25 23 21 19 19 17 24 24 25 27 22
39 35 30 29 30 28 28 29 28 26 24 25 25 24 23 21 22 23 25 27 28 26 23 23 25 24 20 26 25 27 29 24
39 35 31 32 31 28 30 31 29 26 25 26 25 24 22 22 23 26 27 27 28 28 26 26 27 31 29 25 28 29 30 22
39 37 34 34 32 30 34 33 30 27 26 28 24 22 22 25 27 29 28 28 31 32 32 28 29 34 35 35 29 31 28 29
40 38 38 35 30 33 35 32 29 27 27 26 21 22 26 28 30 29 29 30 33 34 31 29 29 34 36 40 39 37 35 33
42 40 40 37 33 37 36 30 28 27 26 23 25 27 30 30 29 30 30 28 30 31 31 27 27 30 31 36 41 44 47 38
41 42 41 36 37 38 35 31 28 27 25 24 27 31 33 32 31 29 27 27 29 29 26 26 29 32 34 35 37 38 41 45
44 44 41 38 40 39 35 32 28 25 22 26 29 32 34 36 29 27 27 28 29 32 34 36 37 38 40 42 44 45 44 45
46 45 39 40 41 37 34 30 27 23 22 26 30 32 35 31 28 28 28 29 34 38 42 45 48 50 53 54 52 53 52 52
47 43 40 43 40 37 34 29 21 21 20 24 28 30 30 26 28 28 27 30 33 39 48 53 57 61 64 67 68 64 62 60

GFSFLT2_prec_cthk_327.txt.gz
RH
17 20 21 18 13 13 13 13 12 12 12 12 10 10 9 9 8 8 8 8 9 9 9 9 9 10 10 11 11 11 10 12
18 20 21 22 22 16 14 13 13 13 14 12 12 14 13 11 15 11 10 10 9 10 8 8 8 10 13 13 13 14 16 19
16 20 25 24 20 20 20 18 18 18 16 13 16 15 15 14 16 16 16 16 14 15 14 13 14 15 15 15 16 22 20 19
20 23 24 25 22 21 19 19 20 21 18 14 16 16 16 17 17 16 16 16 16 16 15 15 15 15 19 20 22 20 20 24
27 28 25 24 25 22 20 19 21 22 21 15 17 19 19 18 17 16 16 17 17 15 16 17 18 22 25 25 24 20 20 24
30 30 27 25 27 24 22 21 22 23 23 21 22 21 20 19 18 19 18 18 19 16 16 16 19 25 28 28 25 24 22 21
31 30 28 28 30 27 24 23 24 24 24 25 25 23 21 20 21 23 20 19 17 16 17 18 22 28 28 26 24 23 22 22
33 32 30 31 33 30 26 25 25 25 26 27 26 24 22 20 23 21 17 19 23 24 23 26 28 28 24 23 23 22 24 25
36 36 33 33 34 30 27 26 26 28 28 28 27 24 22 22 25 21 19 24 25 26 26 25 26 27 23 20 22 23 29 29
39 37 38 38 33 31 29 28 28 30 30 29 26 24 23 21 26 26 20 26 28 29 29 29 27 28 25 22 22 26 35 34
42 39 38 37 35 32 32 30 32 33 32 28 25 24 22 22 28 27 23 30 30 31 32 31 30 30 29 25 23 31 37 34
43 42 38 38 35 33 32 31 34 35 33 29 26 24 22 26 28 30 30 30 31 33 33 32 30 29 29 27 32 35 37 36
43 43 41 39 36 34 31 33 37 35 33 30 27 22 26 30 30 31 31 32 33 33 31 31 29 29 28 27 29 36 41 27
45 44 42 40 38 34 31 35 36 34 32 31 30 25 31 30 32 31 33 33 31 31 31 31 29 29 30 31 26 40 41 34
46 44 43 44 38 35 34 37 36 34 31 28 28 29 30 32 32 34 33 32 32 32 32 30 27 29 32 35 33 34 33 38
47 46 47 43 41 35 37 38 36 33 30 27 28 29 31 32 34 34 33 33 33 34 37 34 35 35 35 38 40 39 40 33
49 49 48 46 41 38 40 37 32 33 29 29 27 30 32 34 34 34 34 33 35 37 36 38 40 41 42 43 45 47 44 44
49 51 51 49 42 41 40 35 31 29 28 26 26 29 33 37 34 34 34 31 37 37 35 40 43 47 50 53 55 55 54 49
50 53 55 48 42 43 38 34 30 28 27 26 27 29 33 33 34 34 34 32 38 35 39 43 51 57 60 63 65 65 65 63
53 55 53 47 45 41 36 31 25 27 27 28 27 30 32 33 33 32 28 37 38 37 44 52 63 66 70 72 74 76 76 73

GFSFLT2_prec_cthk_333.txt.gz
RH
10 10 15 18 20 20 19 21 21 18 17 15 14 15 17 21 24 24 23 23 20 19 18 17 17 15 15 15 11 13 11 14
11 13 17 20 22 23 24 24 24 22 19 16 14 16 18 19 23 24 24 22 20 19 17 17 15 12 15 14 14 11 11 14
11 15 20 24 25 25 27 26 26 25 21 18 16 17 18 20 23 24 23 22 20 18 17 16 13 12 13 13 13 11 10 13
14 18 22 25 28 28 28 28 28 28 23 21 18 19 20 21 21 22 19 16 15 17 16 12 12 12 13 13 13 13 12 13
18 21 23 26 28 30 30 30 29 29 26 22 21 20 21 21 23 21 16 13 13 14 13 13 13 13 14 15 14 14 16 18
21 24 26 28 30 32 32 32 32 31 28 23 23 22 22 23 24 21 16 14 15 17 16 14 14 13 16 16 14 16 19 24
23 26 28 31 33 35 35 35 34 33 28 24 25 24 24 25 25 21 17 17 17 18 17 15 14 14 15 15 15 19 23 26
27 30 32 34 36 37 38 37 36 33 29 27 28 27 27 26 27 21 17 19 19 19 18 16 15 14 13 14 16 21 26 35
32 36 36 37 39 39 40 40 38 35 31 30 31 31 28 27 24 21 21 19 20 20 17 17 14 11 11 13 19 23 32 40
36 39 39 41 41 42 42 42 39 35 33 34 35 33 28 25 24 24 21 20 21 20 18 15 14 12 11 13 21 24 30 39
41 42 41 43 44 44 44 42 39 35 34 38 38 35 28 27 26 24 22 21 22 19 19 19 18 15 14 12 21 25 31 36
44 45 44 46 46 46 45 43 40 38 38 42 40 36 28 28 24 23 21 21 20 20 20 21 20 17 16 17 23 26 31 34
46 47 47 46 48 48 45 43 41 40 43 44 42 34 30 27 25 22 21 20 22 23 22 22 19 18 16 17 22 26 33 32
47 49 49 48 49 48 45 43 42 43 47 45 41 36 33 29 27 24 23 21 22 24 24 24 23 24 26 24 22 26 33 32
51 51 51 50 50 48 45 44 42 48 47 42 37 35 32 29 29 27 24 24 26 26 28 27 26 27 31 34 36 39 37 40
53 53 52 52 51 49 47 44 47 50 45 39 35 33 30 29 29 25 25 26 27 26 30 29 28 32 38 44 51 51 49 44
54 55 54 54 55 53 48 48 51 46 40 34 30 29 28 27 25 24 24 27 27 28 29 31 34 41 49 57 60 64 66 59
57 58 58 58 58 57 53 53 46 39 36 30 26 24 23 21 22 22 22 26 26 28 29 35 43 55 63 68 72 74 69 66
60 61 61 62 62 59 56 46 40 36 32 27 22 19 20 20 20 20 23 24 26 27 34 46 59 65 71 76 80 77 72 68
61 63 64 66 64 60 50 42 37 34 28 23 19 18 18 19 20 22 22 23 26 33 51 59 63 70 76 81 82 75 73 71

GFSFLT2_prec_cthk_339.txt.gz
RH
20 15 14 15 16 20 23 25 26 26 27 26 26 25 23 21 20 22 24 24 25 25 23 20 18 16 17 19 18 12 11 11
21 17 15 16 19 22 25 28 28 28 28 29 28 27 26 23 21 20 23 22 25 23 21 17 18 18 18 17 15 14 12 12
22 18 16 18 20 24 28 30 30 31 32 32 31 30 27 24 22 23 24 24 22 20 19 20 19 17 17 17 16 15 14 14
23 19 17 20 22 26 29 31 33 34 35 34 34 31 30 26 25 25 26 25 25 25 23 21 19 17 15 14 13 12 12 12
22 19 19 22 25 28 31 34 37 38 38 38 37 34 31 27 27 28 28 29 27 24 22 19 17 15 13 11 10 10 12 13
23 22 22 25 27 30 35 38 40 42 42 42 40 36 31 29 29 31 32 30 26 23 20 18 15 13 10 9 10 10 12 15
28 27 27 28 30 34 38 41 43 44 45 45 42 37 33 32 32 35 32 28 24 21 19 16 13 12 10 10 11 12 15 18
32 32 32 32 34 37 40 43 44 47 48 46 43 38 36 36 37 36 30 26 24 21 17 14 12 11 10 12 14 17 19 21
36 37 36 37 39 39 41 44 47 50 50 48 44 41 42 42 40 32 28 25 23 18 15 13 11 10 11 11 15 20 23 24
40 43 43 44 43 43 44 46 49 51 50 48 46 46 46 44 35 32 29 25 21 16 13 10 10 10 11 12 16 21 26 28
46 48 49 49 47 46 46 47 50 51 50 49 50 51 47 40 35 33 30 25 19 16 12 11 11 11 13 14 19 22 26 29
50 54 53 52 49 47 47 49 51 52 51 52 54 52 45 39 35 33 29 23 18 14 13 14 13 12 14 16 19 23 27 30
55 57 56 56 52 47 49 52 54 55 53 55 55 51 44 37 35 32 26 21 16 14 14 14 13 13 13 16 19 22 26 30
59 59 62 60 52 51 54 56 57 57 55 60 53 47 40 37 35 29 23 17 15 15 16 15 15 18 21 22 25 28 33 36
61 66 67 61 55 56 57 59 61 57 60 53 48 42 38 35 30 23 17 14 15 16 15 16 18 23 32 40 42 43 44 50
68 71 69 64 59 59 61 62 60 63 56 50 43 39 33 26 20 14 13 14 14 15 16 20 26 36 44 51 54 56 56 54
72 73 71 64 61 65 66 65 67 61 49 43 41 34 25 20 13 13 14 14 15 18 22 30 38 45 50 56 61 65 66 65
76 76 70 65 67 69 70 72 63 48 43 42 34 25 19 13 13 14 14 16 20 24 31 39 46 51 57 63 66 66 68 72
78 73 70 69 72 72 79 64 49 44 44 36 26 19 14 14 15 14 16 21 24 31 40 46 51 57 62 65 67 77 81 81
72 75 68 72 77 81 68 54 45 43 39 29 23 15 15 15 14 16 22 24 30 41 46 52 57 61 64 69 80 84 87 87

GFSFLT2_prec_cthk_342.txt.gz
RH
22 19 16 16 16 17 19 22 24 26 27 30 30 30 29 28 26 25 26 25 25 23 23 22 20 19 19 18 17 16 16 16
23 22 19 18 17 18 20 24 25 28 30 32 33 32 31 30 28 27 26 26 25 24 24 24 20 18 17 17 17 16 16 15
24 23 22 19 18 20 23 26 28 32 34 35 35 35 34 32 30 28 29 27 28 28 28 23 20 18 17 17 16 16 15 15
25 25 23 21 22 24 27 30 32 35 36 37 38 37 36 34 32 31 30 33 32 31 27 21 19 17 16 15 14 12 12 12
27 27 24 24 26 28 31 34 35 37 38 40 40 40 38 35 34 33 36 33 32 30 24 21 19 18 16 14 13 11 11 12
29 27 27 29 30 32 34 36 38 40 42 43 43 43 40 37 36 36 36 33 31 28 24 21 20 19 17 15 15 13 12 13
31 33 33 34 35 36 38 40 41 44 46 46 46 45 42 38 39 39 36 32 30 25 22 21 20 17 15 12 13 14 14 15
36 37 37 39 40 43 44 44 45 47 47 48 49 46 42 40 42 39 34 33 29 25 23 20 16 13 10 9 10 13 15 16
43 44 43 44 47 50 48 47 49 49 49 50 49 46 44 45 43 40 38 32 27 24 19 16 12 9 9 9 10 14 16 18
50 51 50 49 52 56 53 50 51 51 52 51 51 50 50 48 43 41 37 31 27 21 15 11 8 8 9 10 12 15 17 20
57 57 54 54 59 60 56 53 51 53 54 54 53 57 53 48 45 40 35 31 24 16 11 9 8 8 9 10 12 15 18 21
65 61 57 61 65 65 58 53 53 55 56 55 59 57 53 46 42 37 34 25 16 11 10 9 10 9 11 12 14 17 20 24
70 62 62 68 71 68 58 55 56 57 58 63 63 54 47 44 39 34 26 17 12 12 10 9 11 12 13 17 20 22 26 29
70 64 69 75 75 66 59 58 59 61 64 66 54 48 45 40 34 27 18 13 11 10 12 13 15 22 26 28 31 36 40 40
67 70 79 80 75 67 62 61 64 69 68 53 45 43 39 34 27 19 15 11 11 14 17 20 24 30 37 42 45 46 46 52
71 76 82 82 70 67 63 62 71 71 56 48 43 38 32 27 20 15 11 11 15 18 22 26 33 39 44 50 57 60 57 51
76 83 84 74 73 67 65 77 77 60 48 43 38 33 28 21 16 12 12 16 20 22 27 36 42 48 52 54 57 60 63 67
81 84 77 76 73 69 75 79 65 53 43 40 35 30 22 18 12 12 16 21 22 26 35 42 48 51 53 56 63 70 75 76
86 81 81 77 72 77 80 72 58 46 42 39 32 24 20 14 12 15 20 23 26 32 42 48 50 52 59 67 75 77 80 81
84 86 82 74 82 84 74 65 52 45 42 36 25 23 19 12 14 19 22 25 30 38 48 50 53 59 66 74 77 80 83 86

GFSFLT2_prec_cthk_345.txt.gz
RH
24 22 20 19 19 18 18 19 22 25 27 31 33 33 33 33 32 30 28 28 27 28 29 28 25 24 23 20 16 14 14 15
25 25 23 22 21 20 20 22 25 28 31 34 35 34 33 33 32 30 29 29 30 30 28 27 24 23 21 19 16 14 14 14
27 26 26 25 24 23 24 27 29 32 34 35 37 37 37 35 33 31 31 31 30 31 29 27 24 23 21 20 17 15 14 14
28 28 28 26 25 26 28 31 34 36 37 38 39 39 38 37 34 33 31 32 32 30 28 25 24 23 22 20 17 16 15 15
29 30 29 28 30 32 35 37 37 39 41 42 42 42 40 37 36 34 35 35 33 31 28 27 25 22 20 19 18 17 16 16
36 33 32 36 38 38 42 43 42 42 43 44 45 44 41 40 38 39 38 37 35 30 28 25 22 22 21 19 17 15 15 15
43 41 43 44 44 45 46 46 47 46 46 48 48 46 44 42 42 42 39 37 33 29 25 23 23 20 17 14 13 12 13 13
50 49 50 50 52 51 51 52 53 51 50 49 49 48 45 45 44 42 40 35 31 27 26 23 19 16 12 10 9 10 13 14
56 57 57 57 58 56 57 60 60 54 52 52 49 48 49 49 45 41 37 33 30 25 21 18 13 11 9 7 8 9 13 14
61 62 64 65 63 61 65 67 60 55 55 52 52 54 54 48 42 40 37 31 25 22 17 13 9 7 6 7 8 10 13 16
65 67 70 69 66 67 70 67 59 57 55 55 58 59 50 42 42 39 32 27 22 17 13 9 6 6 7 9 10 12 16 18
69 71 74 73 71 69 70 64 61 56 55 60 64 54 45 43 40 34 27 22 17 13 8 8 10 10 14 19 19 21 23 28
73 75 79 75 70 72 73 62 63 60 58 67 61 51 44 40 36 29 22 17 15 11 9 11 16 21 25 27 29 29 32 37
73 78 79 76 74 79 68 66 64 63 68 61 51 46 41 37 31 24 19 17 14 12 14 18 26 31 33 35 37 40 43 43
72 75 76 76 83 82 70 68 67 72 64 56 45 42 40 33 27 21 19 17 14 15 19 26 32 37 42 44 46 45 46 47
72 75 79 85 89 78 69 69 73 69 61 50 46 42 39 31 24 21 18 15 17 19 25 30 37 41 44 48 53 57 59 58
75 77 87 93 83 73 71 75 74 64 58 48 46 42 32 26 23 19 15 17 19 24 29 37 42 43 50 54 59 65 69 71
78 87 94 83 75 76 79 77 71 63 51 50 42 33 29 26 20 16 18 19 22 29 35 43 46 50 56 60 65 70 75 76
84 94 88 84 81 83 82 77 66 54 54 44 35 32 30 22 15 17 19 20 24 30 42 48 52 55 61 65 71 74 78 81
93 87 86 84 90 87 80 68 59 58 47 40 34 33 24 16 16 19 20 21 23 28 47 54 58 61 67 71 76 79 82 85